TimePDT,TemperatureF,Dew PointF,Humidity,Sea Level PressureIn,VisibilityMPH,Wind Direction,Wind SpeedMPH,Gust SpeedMPH,PrecipitationIn,Events,Conditions,WindDirDegrees,DateUTC
12:53 AM,19.9,17.1,89,30.29,10.0,Calm,Calm,-,N/A,,Clear,0,2013-03-23 07:53:00
1:53 AM,19.0,16.0,88,30.30,10.0,Calm,Calm,-,N/A,,Clear,0,2013-03-23 08:53:00
2:53 AM,18.0,15.1,88,30.32,10.0,NE,3.5,-,N/A,,Clear,50,2013-03-23 09:53:00
3:53 AM,19.0,16.0,88,30.32,10.0,Calm,Calm,-,N/A,,Clear,0,2013-03-23 10:53:00
4:53 AM,17.1,14.0,88,30.34,10.0,Calm,Calm,-,N/A,,Clear,0,2013-03-23 11:53:00
5:53 AM,16.0,14.0,92,30.36,10.0,NE,3.5,-,N/A,,Clear,40,2013-03-23 12:53:00
6:53 AM,18.0,15.1,88,30.38,10.0,Calm,Calm,-,N/A,,Clear,0,2013-03-23 13:53:00
7:53 AM,23.0,19.0,85,30.38,10.0,Calm,Calm,-,N/A,,Clear,0,2013-03-23 14:53:00
8:53 AM,30.0,21.0,69,30.39,10.0,Calm,Calm,-,N/A,,Clear,0,2013-03-23 15:53:00
9:53 AM,30.9,23.0,72,30.39,10.0,Calm,Calm,-,N/A,,Clear,0,2013-03-23 16:53:00
10:53 AM,34.0,23.0,64,30.39,10.0,Variable,4.6,-,N/A,,Partly Cloudy,0,2013-03-23 17:53:00
11:53 AM,37.0,21.9,54,30.37,10.0,Calm,Calm,-,N/A,,Clear,0,2013-03-23 18:53:00
12:53 PM,37.9,21.9,53,30.36,10.0,SSE,5.8,-,N/A,,Scattered Clouds,150,2013-03-23 19:53:00
1:53 PM,39.0,19.9,46,30.35,10.0,Variable,5.8,-,N/A,,Partly Cloudy,0,2013-03-23 20:53:00
2:53 PM,41.0,18.0,40,30.32,10.0,Calm,Calm,-,N/A,,Overcast,0,2013-03-23 21:53:00
3:53 PM,39.9,21.9,49,30.32,10.0,South,9.2,-,N/A,,Overcast,180,2013-03-23 22:53:00
4:39 PM,35.6,26.6,70,30.25,7.0,Calm,Calm,-,0.00,Snow,Light Snow,0,2013-03-23 23:39:00
4:53 PM,37.0,25.0,62,30.33,9.0,NE,3.5,-,0.00,,Mostly Cloudy,40,2013-03-23 23:53:00
5:02 PM,37.4,24.8,60,30.25,10.0,Calm,Calm,-,N/A,,Partly Cloudy,0,2013-03-24 00:02:00
5:53 PM,39.0,21.0,49,30.32,10.0,Calm,Calm,-,N/A,,Clear,0,2013-03-24 00:53:00
6:53 PM,35.1,21.9,59,30.33,10.0,Calm,Calm,-,N/A,,Mostly Cloudy,0,2013-03-24 01:53:00
7:53 PM,28.0,21.0,75,30.33,10.0,Calm,Calm,-,N/A,,Partly Cloudy,0,2013-03-24 02:53:00
8:53 PM,26.1,21.0,81,30.34,10.0,Calm,Calm,-,N/A,,Clear,0,2013-03-24 03:53:00
9:53 PM,24.1,19.9,84,30.35,10.0,NNE,3.5,-,N/A,,Clear,30,2013-03-24 04:53:00
10:53 PM,25.0,21.0,85,30.35,10.0,Calm,Calm,-,N/A,,Clear,0,2013-03-24 05:53:00
11:53 PM,21.9,19.0,89,30.36,10.0,Calm,Calm,-,N/A,,Clear,0,2013-03-24 06:53:00